TimeAKDT,TemperatureF,Dew PointF,Humidity,Sea Level PressureIn,VisibilityMPH,Wind Direction,Wind SpeedMPH,Gust SpeedMPH,PrecipitationIn,Events,Conditions,WindDirDegrees,DateUTC
12:56 AM,42.8,39.2,87,29.59,10.0,ENE,4.6,-,N/A,,Clear,70,2013-06-20 08:56:00
1:16 AM,42.8,37.4,81,29.59,9.0,Calm,Calm,-,N/A,,Clear,0,2013-06-20 09:16:00
1:36 AM,41.0,37.4,87,29.60,10.0,East,9.2,-,N/A,,Clear,80,2013-06-20 09:36:00
1:56 AM,39.2,37.4,93,29.60,10.0,East,6.9,-,N/A,,Clear,90,2013-06-20 09:56:00
2:16 AM,41.0,39.2,93,29.59,10.0,Calm,Calm,-,N/A,,Clear,0,2013-06-20 10:16:00
2:36 AM,41.0,37.4,87,29.59,8.0,West,5.8,-,N/A,,Clear,260,2013-06-20 10:36:00
2:56 AM,39.2,37.4,93,29.58,9.0,WSW,6.9,-,N/A,,Clear,240,2013-06-20 10:56:00
3:16 AM,39.2,37.4,93,29.59,10.0,WSW,5.8,-,N/A,,Clear,250,2013-06-20 11:16:00
3:36 AM,41.0,37.4,87,29.59,6.0,West,4.6,-,N/A,,Clear,270,2013-06-20 11:36:00
3:56 AM,39.2,37.4,93,29.59,9.0,Calm,Calm,-,N/A,,Clear,0,2013-06-20 11:56:00
4:16 AM,39.2,37.4,93,29.60,10.0,ENE,5.8,-,N/A,,Clear,60,2013-06-20 12:16:00
4:36 AM,41.0,37.4,87,29.61,10.0,East,5.8,-,N/A,,Clear,80,2013-06-20 12:36:00
4:56 AM,42.8,39.2,87,29.60,10.0,SW,4.6,-,N/A,,Clear,220,2013-06-20 12:56:00
5:16 AM,42.8,39.2,87,29.61,10.0,Calm,Calm,-,N/A,,Clear,0,2013-06-20 13:16:00
5:36 AM,42.8,37.4,81,29.61,10.0,NNW,5.8,-,N/A,,Clear,340,2013-06-20 13:36:00
5:56 AM,42.8,37.4,81,29.61,10.0,North,5.8,-,N/A,,Clear,360,2013-06-20 13:56:00
6:16 AM,50.0,44.6,82,29.60,10.0,NE,8.1,-,N/A,,Clear,40,2013-06-20 14:16:00
6:36 AM,53.6,44.6,72,29.60,10.0,SW,8.1,21.9,N/A,,Clear,220,2013-06-20 14:36:00
6:56 AM,53.6,44.6,72,29.60,10.0,South,16.1,27.6,N/A,,Scattered Clouds,170,2013-06-20 14:56:00
7:16 AM,53.6,46.4,77,29.61,10.0,NE,13.8,18.4,N/A,,Mostly Cloudy,40,2013-06-20 15:16:00
7:36 AM,53.6,46.4,77,29.61,10.0,South,12.7,28.8,N/A,,Mostly Cloudy,180,2013-06-20 15:36:00
7:56 AM,50.0,44.6,82,29.60,10.0,SSW,11.5,29.9,N/A,,Mostly Cloudy,210,2013-06-20 15:56:00
8:16 AM,50.0,44.6,82,29.60,10.0,South,31.1,39.1,N/A,,Overcast,170,2013-06-20 16:16:00
8:36 AM,50.0,44.6,82,29.63,10.0,South,15.0,27.6,N/A,,Overcast,190,2013-06-20 16:36:00
8:56 AM,48.2,42.8,82,29.62,10.0,South,34.5,41.4,N/A,,Mostly Cloudy,170,2013-06-20 16:56:00
9:16 AM,48.2,42.8,82,29.64,10.0,SSE,21.9,36.8,N/A,,Partly Cloudy,160,2013-06-20 17:16:00
9:36 AM,48.2,42.8,82,29.65,10.0,SE,8.1,-,N/A,,Partly Cloudy,130,2013-06-20 17:36:00
9:56 AM,50.0,42.8,76,29.65,10.0,SSE,20.7,32.2,N/A,,Partly Cloudy,160,2013-06-20 17:56:00
10:16 AM,48.2,42.8,82,29.66,10.0,South,28.8,32.2,N/A,,Partly Cloudy,190,2013-06-20 18:16:00
10:36 AM,48.2,42.8,82,29.67,10.0,West,4.6,28.8,N/A,,Mostly Cloudy,280,2013-06-20 18:36:00
10:56 AM,51.8,42.8,71,29.68,10.0,West,12.7,21.9,N/A,,Mostly Cloudy,260,2013-06-20 18:56:00
11:16 AM,51.8,42.8,71,29.69,10.0,South,18.4,26.5,N/A,,Mostly Cloudy,190,2013-06-20 19:16:00
11:36 AM,50.0,42.8,76,29.70,10.0,South,18.4,23.0,N/A,,Overcast,190,2013-06-20 19:36:00
11:56 AM,51.8,44.6,76,29.70,10.0,West,10.4,16.1,N/A,,Mostly Cloudy,280,2013-06-20 19:56:00
12:16 PM,51.8,42.8,71,29.71,10.0,SW,6.9,19.6,N/A,,Mostly Cloudy,230,2013-06-20 20:16:00
12:36 PM,51.8,42.8,71,29.73,10.0,South,16.1,27.6,N/A,,Scattered Clouds,170,2013-06-20 20:36:00
12:56 PM,53.6,42.8,67,29.71,10.0,North,3.5,-,N/A,,Partly Cloudy,350,2013-06-20 20:56:00
1:16 PM,53.6,42.8,67,29.73,10.0,South,8.1,-,N/A,,Scattered Clouds,190,2013-06-20 21:16:00
1:36 PM,53.6,42.8,67,29.70,10.0,South,31.1,39.1,N/A,,Scattered Clouds,170,2013-06-20 21:36:00
1:56 PM,53.6,42.8,67,29.71,10.0,South,32.2,42.6,N/A,,Clear,170,2013-06-20 21:56:00
2:16 PM,53.6,44.6,72,29.71,10.0,South,28.8,41.4,N/A,,Clear,170,2013-06-20 22:16:00
2:36 PM,55.4,44.6,67,29.72,10.0,SSE,33.4,42.6,N/A,,Clear,160,2013-06-20 22:36:00
2:56 PM,55.4,44.6,67,29.73,10.0,SSE,28.8,36.8,N/A,,Clear,160,2013-06-20 22:56:00
3:16 PM,55.4,44.6,67,29.74,10.0,South,26.5,33.4,N/A,,Clear,170,2013-06-20 23:16:00
3:36 PM,55.4,44.6,67,29.75,10.0,South,24.2,33.4,N/A,,Clear,170,2013-06-20 23:36:00
3:56 PM,55.4,44.6,67,29.75,10.0,SSE,25.3,32.2,N/A,,Clear,150,2013-06-20 23:56:00
4:16 PM,55.4,44.6,67,29.76,10.0,SSE,23.0,29.9,N/A,,Clear,160,2013-06-21 00:16:00
4:36 PM,55.4,44.6,67,29.76,10.0,SSE,18.4,26.5,N/A,,Clear,160,2013-06-21 00:36:00
4:56 PM,55.4,44.6,67,29.76,10.0,SSE,24.2,29.9,N/A,,Clear,160,2013-06-21 00:56:00
5:16 PM,55.4,46.4,72,29.77,10.0,SE,16.1,27.6,N/A,,Scattered Clouds,140,2013-06-21 01:16:00
5:36 PM,55.4,44.6,67,29.78,10.0,SE,20.7,29.9,N/A,,Overcast,140,2013-06-21 01:36:00
5:56 PM,55.4,46.4,72,29.78,10.0,SE,21.9,27.6,N/A,,Overcast,130,2013-06-21 01:56:00
6:16 PM,53.6,46.4,77,29.78,10.0,SE,19.6,-,N/A,,Overcast,130,2013-06-21 02:16:00
6:36 PM,55.4,46.4,72,29.78,10.0,SE,18.4,24.2,N/A,,Overcast,140,2013-06-21 02:36:00
6:56 PM,55.4,44.6,67,29.78,10.0,SE,20.7,25.3,N/A,,Overcast,140,2013-06-21 02:56:00
7:16 PM,55.4,46.4,72,29.78,10.0,SE,17.3,24.2,N/A,,Overcast,140,2013-06-21 03:16:00
7:36 PM,53.6,44.6,72,29.78,10.0,SE,17.3,23.0,N/A,,Overcast,140,2013-06-21 03:36:00
7:56 PM,53.6,44.6,72,29.78,10.0,SE,19.6,23.0,N/A,,Overcast,140,2013-06-21 03:56:00
11:56 PM,48.2,42.8,82,29.77,10.0,ESE,23.0,32.2,N/A,,Partly Cloudy,120,2013-06-21 07:56:00